When you browse on this site, cookies collect data to enhance your experience and personalize the content and advertising you see.
Visit our Privacy Policy to learn more. By continuing to use the site, you agree to this use of cookies and data.
  • In Romania
  • List of Countries
  • For 7 days
  • Water Temperature
  • Satellite Maps
  • Weather Map
  • Weather Widgets
  • user-avatar
    Login

    Hourly Weather Kamarang

    Today, 18 January, Friday

    Time Temperature Precipitation Wind Pressure Humidity
    00:00 +19°C° 0 mm 0 mps 714 mmHg 98%
    01:00 +19°C° 0 mm 0 mps 714 mmHg 99%
    02:00 +19°C° 0 mm 0 mps 714 mmHg 99%
    03:00 +19°C° 0.1 mm 0 mps 714 mmHg 98%
    04:00 +19°C° 0.1 mm 0 mps 714 mmHg 98%
    05:00 +19°C° 0.1 mm 0 mps 714 mmHg 98%
    06:00 +20°C° 0.1 mm 0 mps 714 mmHg 97%
    07:00 +20°C° 0.1 mm 0 mps 714 mmHg 96%
    08:00 +20°C° 0 mm 0 mps 714 mmHg 95%
    09:00 +22°C° 0.1 mm 0 mps 715 mmHg 88%
    10:00 +23°C° 0.1 mm 0 mps 715 mmHg 82%
    11:00 +24°C° 0.1 mm 0 mps 715 mmHg 76%
    12:00 +28°C° 0.1 mm 1 mps 714 mmHg 67%
    13:00 +30°C° 0.1 mm 1 mps 713 mmHg 59%
    14:00 +32°C° 0.1 mm 2 mps 713 mmHg 50%
    15:00 +31°C° 0.1 mm 2 mps 712 mmHg 55%
    16:00 +30°C° 0.1 mm 2 mps 712 mmHg 60%
    17:00 +29°C° 0.1 mm 2 mps 712 mmHg 65%
    18:00 +27°C° 0 mm 2 mps 712 mmHg 74%
    19:00 +25°C° 0 mm 1 mps 712 mmHg 84%
    20:00 +23°C° 0 mm 1 mps 713 mmHg 94%
    21:00 +20°C° 0 mm 0 mps 713 mmHg 95%
    22:00 +20°C° 0 mm 0 mps 713 mmHg 97%
    23:00 +19°C° 0 mm 0 mps 714 mmHg 98%

    Tomorrow, 19 January, Saturday

    Time Temperature Precipitation Wind Pressure Humidity
    00:00 +19°C° 0.1 mm 0 mps 714 mmHg 98%
    01:00 +20°C° 0.1 mm 0 mps 714 mmHg 97%
    02:00 +20°C° 0.1 mm 0 mps 713 mmHg 97%
    03:00 +20°C° 0.2 mm 0 mps 713 mmHg 97%
    04:00 +20°C° 0.2 mm 0 mps 713 mmHg 97%
    05:00 +20°C° 0.2 mm 0 mps 713 mmHg 98%
    06:00 +20°C° 0.1 mm 0 mps 714 mmHg 97%
    07:00 +20°C° 0.1 mm 0 mps 714 mmHg 96%
    08:00 +20°C° 0.1 mm 0 mps 714 mmHg 96%
    09:00 +22°C° 0.1 mm 0 mps 714 mmHg 90%
    10:00 +23°C° 0.1 mm 0 mps 715 mmHg 84%
    11:00 +24°C° 0.1 mm 0 mps 715 mmHg 79%
    12:00 +28°C° 0.1 mm 1 mps 714 mmHg 69%
    13:00 +30°C° 0.1 mm 1 mps 713 mmHg 59%
    14:00 +32°C° 0.1 mm 2 mps 713 mmHg 49%
    15:00 +31°C° 0 mm 2 mps 712 mmHg 52%
    16:00 +31°C° 0 mm 2 mps 712 mmHg 54%
    17:00 +30°C° 0 mm 2 mps 711 mmHg 56%
    18:00 +28°C° 0 mm 1 mps 712 mmHg 67%
    19:00 +26°C° 0 mm 1 mps 712 mmHg 78%
    20:00 +23°C° 0 mm 1 mps 712 mmHg 89%
    21:00 +23°C° 0.1 mm 1 mps 713 mmHg 92%
    22:00 +21°C° 0.1 mm 0 mps 713 mmHg 94%
    23:00 +20°C° 0.1 mm 0 mps 714 mmHg 97%

    Day after tomorrow, 20 January, Sunday

    Time Temperature Precipitation Wind Pressure Humidity
    00:00 +20°C° 0.1 mm 0 mps 714 mmHg 97%
    01:00 +20°C° 0.1 mm 0 mps 713 mmHg 97%
    02:00 +20°C° 0.1 mm 0 mps 713 mmHg 97%
    03:00 +20°C° 0.1 mm 0 mps 713 mmHg 98%
    04:00 +20°C° 0.1 mm 0 mps 713 mmHg 98%
    05:00 +19°C° 0.1 mm 0 mps 713 mmHg 99%
    06:00 +20°C° 0.1 mm 0 mps 713 mmHg 97%
    07:00 +20°C° 0.1 mm 0 mps 714 mmHg 94%
    08:00 +21°C° 0.1 mm 0 mps 715 mmHg 92%
    09:00 +23°C° 0.1 mm 0 mps 715 mmHg 79%
    10:00 +28°C° 0.1 mm 1 mps 715 mmHg 66%
    11:00 +30°C° 0.1 mm 1 mps 715 mmHg 53%
    12:00 +31°C° 0.1 mm 1 mps 714 mmHg 52%
    13:00 +31°C° 0.1 mm 2 mps 713 mmHg 51%
    14:00 +32°C° 0.1 mm 2 mps 712 mmHg 49%
    15:00 +31°C° 0.2 mm 2 mps 712 mmHg 55%
    16:00 +30°C° 0.2 mm 2 mps 712 mmHg 60%
    17:00 +28°C° 0.2 mm 2 mps 711 mmHg 66%
    18:00 +27°C° 0.1 mm 2 mps 712 mmHg 75%
    19:00 +25°C° 0.1 mm 1 mps 712 mmHg 84%
    20:00 +23°C° 0.1 mm 1 mps 713 mmHg 93%
    21:00 +20°C° 0 mm 0 mps 713 mmHg 94%
    22:00 +20°C° 0 mm 0 mps 714 mmHg 96%
    23:00 +20°C° 0 mm 0 mps 714 mmHg 98%

    21 January, Monday

    Time Temperature Precipitation Wind Pressure Humidity
    00:00 +19°C° 0 mm 0 mps 714 mmHg 98%
    01:00 +19°C° 0 mm 0 mps 713 mmHg 98%
    02:00 +19°C° 0 mm 0 mps 713 mmHg 98%
    03:00 +19°C° 0 mm 0 mps 713 mmHg 97%
    04:00 +20°C° 0 mm 0 mps 713 mmHg 96%
    05:00 +20°C° 0 mm 0 mps 713 mmHg 96%
    06:00 +20°C° 0 mm 0 mps 714 mmHg 92%
    07:00 +21°C° 0 mm 0 mps 714 mmHg 88%
    08:00 +22°C° 0 mm 0 mps 715 mmHg 84%
    09:00 +23°C° 0 mm 0 mps 715 mmHg 76%
    10:00 +26°C° 0 mm 1 mps 715 mmHg 68%
    11:00 +28°C° 0 mm 1 mps 716 mmHg 59%
    12:00 +29°C° 0 mm 1 mps 715 mmHg 53%
    13:00 +31°C° 0 mm 2 mps 714 mmHg 46%
    14:00 +34°C° 0 mm 2 mps 713 mmHg 40%
    15:00 +32°C° 0 mm 2 mps 713 mmHg 42%
    16:00 +31°C° 0 mm 2 mps 713 mmHg 45%
    17:00 +31°C° 0 mm 2 mps 712 mmHg 47%
    18:00 +28°C° 0 mm 1 mps 713 mmHg 60%
    19:00 +26°C° 0 mm 1 mps 713 mmHg 73%
    20:00 +23°C° 0 mm 1 mps 714 mmHg 85%
    21:00 +23°C° 0.1 mm 1 mps 714 mmHg 89%
    22:00 +22°C° 0.1 mm 1 mps 714 mmHg 94%
    23:00 +20°C° 0.1 mm 0 mps 715 mmHg 98%

    22 January, Tuesday

    Time Temperature Precipitation Wind Pressure Humidity
    00:00 +20°C° 0.1 mm 0 mps 714 mmHg 98%
    01:00 +20°C° 0.1 mm 0 mps 714 mmHg 97%
    02:00 +20°C° 0.1 mm 0 mps 714 mmHg 97%
    03:00 +20°C° 0.1 mm 0 mps 714 mmHg 97%
    04:00 +19°C° 0.1 mm 0 mps 714 mmHg 98%
    05:00 +19°C° 0.1 mm 0 mps 714 mmHg 98%
    06:00 +20°C° 0 mm 0 mps 714 mmHg 96%
    07:00 +20°C° 0 mm 0 mps 715 mmHg 93%
    08:00 +21°C° 0 mm 0 mps 715 mmHg 90%
    09:00 +22°C° 0.1 mm 0 mps 715 mmHg 83%
    10:00 +24°C° 0.1 mm 0 mps 715 mmHg 76%
    11:00 +27°C° 0.1 mm 1 mps 715 mmHg 68%
    12:00 +28°C° 0.1 mm 1 mps 715 mmHg 64%
    13:00 +29°C° 0.1 mm 1 mps 714 mmHg 60%
    14:00 +30°C° 0.1 mm 1 mps 713 mmHg 57%
    15:00 +29°C° 0.2 mm 2 mps 713 mmHg 60%
    16:00 +29°C° 0.2 mm 2 mps 712 mmHg 63%
    17:00 +28°C° 0.2 mm 2 mps 712 mmHg 66%
    18:00 +26°C° 0.1 mm 1 mps 712 mmHg 75%
    19:00 +24°C° 0.1 mm 1 mps 713 mmHg 84%
    20:00 +21°C° 0.1 mm 0 mps 713 mmHg 93%
    21:00 +20°C° 0.1 mm 0 mps 714 mmHg 95%
    22:00 +20°C° 0.1 mm 0 mps 714 mmHg 96%
    23:00 +21°C° 0.1 mm 1 mps 714 mmHg 98%

    23 January, Wednesday

    Time Temperature Precipitation Wind Pressure Humidity
    00:00 +19°C° 0 mm 0 mps 714 mmHg 98%
    01:00 +19°C° 0 mm 0 mps 714 mmHg 98%
    02:00 +19°C° 0 mm 0 mps 714 mmHg 98%
    03:00 +19°C° 0 mm 0 mps 714 mmHg 98%
    04:00 +19°C° 0 mm 0 mps 714 mmHg 97%
    05:00 +19°C° 0 mm 0 mps 714 mmHg 97%
    06:00 +19°C° 0 mm 0 mps 714 mmHg 95%
    07:00 +19°C° 0 mm 0 mps 715 mmHg 93%
    08:00 +20°C° 0 mm 0 mps 715 mmHg 91%
    09:00 +21°C° 0 mm 0 mps 715 mmHg 83%
    10:00 +23°C° 0 mm 0 mps 715 mmHg 75%
    11:00 +24°C° 0 mm 0 mps 715 mmHg 68%
    12:00 +28°C° 0 mm 1 mps 715 mmHg 62%
    13:00 +29°C° 0 mm 1 mps 714 mmHg 56%
    14:00 +30°C° 0 mm 1 mps 713 mmHg 50%
    15:00 +30°C° 0 mm 1 mps 713 mmHg 52%
    16:00 +30°C° 0 mm 2 mps 713 mmHg 53%
    17:00 +29°C° 0 mm 2 mps 712 mmHg 55%
    18:00 +27°C° 0.1 mm 1 mps 713 mmHg 68%
    19:00 +25°C° 0.1 mm 1 mps 713 mmHg 82%
    20:00 +22°C° 0.1 mm 1 mps 713 mmHg 95%
    21:00 +22°C° 0.1 mm 1 mps 714 mmHg 96%
    22:00 +19°C° 0.1 mm 0 mps 714 mmHg 98%
    23:00 +19°C° 0.1 mm 0 mps 714 mmHg 99%
    Show more